Regional Weather Roundup
Issued by NWS

Home | Current Version | Previous Version | Graphics & Text | Print | Product List | Glossary On
Versions: 1 2 3 4 5 6 7 8 9 10 11 12 13 14 15 16 17 18 19 20 21 22 23 24 25 26 27 28 29 30 31 32 33 34 35 36 37 38 39 40 41 42 43 44 45 46 47 48 49 50
000
ASUS43 KFSD 011210
RWRSD

WEATHER ROUNDUP FOR SOUTH DAKOTA
NATIONAL WEATHER SERVICE SIOUX FALLS SD
700 AM CDT WED OCT 01 2014

NOTE: "FAIR" INDICATES FEW OR NO CLOUDS BELOW 12,000 FEET WITH NO
SIGNIFICANT WEATHER AND/OR OBSTRUCTIONS TO VISIBILITY.


SDZ001>005-009-010-012>017-011300-
NORTHWEST AND NORTH CENTRAL SOUTH DAKOTA

CITY           SKY/WX    TMP DP  RH WIND       PRES   REMARKS
BUFFALO          N/A     52  49  89 W22G29    29.68R
FAITH            N/A     51  48  89 W10       29.72R
MOBRIDGE       PTCLDY    55  51  86 W9        29.66R
$$

SDZ012>016-024>037-041>051-057-063-072>074-011300-
SOUTHWEST AND SOUTH CENTRAL SOUTH DAKOTA

CITY           SKY/WX    TMP DP  RH WIND       PRES   REMARKS
RAPID CTY ARPT MOCLDY    50  45  83 CALM      29.77R
PIERRE         MOCLDY    54  47  77 W9        29.71R
CUSTER         MOCLDY    44  39  82 CALM      29.83S
ELLSWORTH AFB  MOCLDY    50  46  85 W5        29.77R
PHILIP         CLOUDY    51  46  83 W6        29.75R
PINE RIDGE     CLEAR     46  44  93 W3        29.81R
WINNER         FAIR      53  47  79 W6        29.74R
$$

SDZ004>011-016>023-039-040-011300-
NORTHEAST SOUTH DAKOTA

CITY           SKY/WX    TMP DP  RH WIND       PRES   REMARKS
ABERDEEN       MOCLDY    53  50  89 S6        29.66S
WATERTOWN      CLOUDY    60  59  96 S8        29.71R
SISSETON         N/A     61  59  93 SW13      29.66R
$$

SDZ017-020-022-023-036>040-048>070-011300-
SOUTHEAST SOUTH DAKOTA

CITY           SKY/WX    TMP DP  RH WIND       PRES   REMARKS
SIOUX FALLS    LGT RAIN  63  61  93 S8        29.73R
HURON          CLOUDY    61  59  93 S5        29.69R FOG
CHAMBERLAIN    PTCLDY    49  48  95 W3        29.72R
MITCHELL       CLOUDY    62  61  96 CALM      29.71R
YANKTON        CLOUDY    63  59  88 SE9       29.72F
$$

ABBREVIATIONS USED IN REMARKS
   TC - TEMPERATURE IN CELSIUS
  WCI - WIND CHILL INDEX
   HX - HEAT INDEX
  VSB - VISIBILITY




USA.gov is the U.S. government's official web portal to all federal, state and local government web resources and services.